Cosmos 1864 Rocket - Orbit

View from above orbital plane
View from above orbital plane
View from above satellite
View from above satellite

Ground track
Ground track

The orbit data is extracted from the following two-line orbital elements,

1 18161U 87057B   13138.47047395  .00000123  00000-0  10862-3 0  2796
2 18161 082.9340 101.1033 0031933 162.4572 346.9215 13.76789598279089
Epoch (UTC): 18 May 2013 11:17:28
Eccentricity: 0.0031933
inclination: 82.9340°
perigee height: 952 km
apogee height: 999 km
right ascension of ascending node: 101.1033°
argument of perigee: 162.4572°
revolutions per day: 13.76789598
mean anomaly at epoch: 346.9215°
orbit number at epoch: 27908

The dashed part of the orbit path shows where the satellite is in the earth's shadow,  

Developed and maintained by Chris Peat, Heavens-Above GmbH. Please read the updated FAQ before sending e-mail. Imprint. DLR